Date String (YYYY-MM-DD hh:mm:ss) UTC,Instrument flags,Ambient pressure (hPa),Sample flow (lpm),Bypass flow (lpm),Sample temperature (°C),Ambient temperature (°C),ASC tube jacket temperature (°C),LED temperature (°C),Box temperature (°C),Sample RH (%),Span deviation,Mass concentration (μg/m³),Mass concentration (μg/m³),Mass concentration (μg/m³)
DateTimeUTC,F1_M11,P_M11,Q1_M11,Q2_M11,T1_M11,T2_M11,T3_M11,T4_M11,T5_M11,U1_M11,ZSPAN_M11,X2_M11,X0_M11,X1_M11
2021-08-28 21:00:00,,0826.7,5.00,0.00,28.8,26.8,00.0,37.9,30.5,26.9,0001.8,0021.29,0034.64,0019.57
2021-08-28 21:01:00,,0826.7,4.99,0.00,28.8,27.2,00.0,37.9,30.7,27.1,0001.8,0021.29,0034.31,0019.55
2021-08-28 21:02:00,,0826.7,5.00,0.00,28.9,27.6,00.0,37.9,30.8,26.9,0002.0,0021.35,0033.93,0019.56
2021-08-28 21:03:00,,0826.7,5.00,0.00,29.0,28.0,00.0,37.9,30.9,27.2,0002.1,0021.40,0033.88,0019.60
2021-08-28 21:04:00,,0826.7,5.01,0.00,29.1,28.2,00.0,38.0,31.0,27.3,0002.1,0021.41,0033.43,0019.59
2021-08-28 21:05:00,,0826.7,4.99,0.00,29.0,27.1,00.0,38.0,30.7,26.8,0002.2,0021.42,0033.00,0019.59
2021-08-28 21:06:00,,0826.7,5.01,0.00,28.9,25.7,00.0,38.0,30.3,27.4,0002.3,0021.48,0033.42,0019.56
2021-08-28 21:07:00,,0826.7,5.00,0.00,28.8,25.7,00.0,37.9,30.3,27.3,0002.4,0021.53,0034.28,0019.56
2021-08-28 21:08:00,,0826.7,5.00,0.00,28.8,26.2,00.0,37.9,30.4,27.2,0002.5,0021.52,0034.45,0019.55
2021-08-28 21:09:00,,0826.6,4.99,0.00,28.8,26.6,00.0,37.9,30.5,27.3,0002.6,0021.48,0034.96,0019.53
2021-08-28 21:10:00,,0826.7,5.00,0.00,28.8,27.1,00.0,37.9,30.6,26.8,0002.6,0021.47,0033.92,0019.53
2021-08-28 21:11:00,,0826.7,4.99,0.00,28.9,27.5,00.0,37.9,30.8,26.7,0002.6,0021.55,0034.01,0019.56
2021-08-28 21:12:00,,0826.7,5.01,0.00,28.9,27.8,00.0,37.9,30.9,26.7,0002.7,0021.55,0034.00,0019.57
2021-08-28 21:13:00,,0826.6,5.01,0.00,29.0,28.1,00.0,37.9,31.0,26.7,0002.5,0021.49,0034.39,0019.57
2021-08-28 21:14:00,,0826.6,4.99,0.00,29.1,28.3,00.0,38.0,31.1,26.4,0002.4,0021.38,0034.00,0019.53
2021-08-28 21:15:00,,0826.7,5.00,0.00,29.1,27.4,00.0,38.0,30.8,26.1,0002.4,0021.28,0034.45,0019.51
2021-08-28 21:16:00,,0826.7,5.01,0.00,29.0,25.9,00.0,38.0,30.4,26.7,0002.3,0021.24,0034.75,0019.52
2021-08-28 21:17:00,,0826.7,5.00,0.00,28.9,25.7,00.0,38.0,30.3,26.5,0002.4,0021.19,0036.43,0019.52
2021-08-28 21:18:00,,0826.7,4.99,0.00,28.8,26.2,00.0,37.9,30.4,26.8,0002.5,0021.18,0036.21,0019.54
2021-08-28 21:19:00,,0826.7,5.01,0.00,28.8,26.6,00.0,37.9,30.5,26.4,0002.4,0021.18,0037.46,0019.51
2021-08-28 21:20:00,,0826.7,5.01,0.00,28.9,27.1,00.0,37.9,30.7,26.2,0002.3,0021.10,0037.36,0019.48
2021-08-28 21:21:00,,0826.7,4.99,0.00,28.9,27.5,00.0,37.9,30.8,26.1,0002.2,0020.98,0036.86,0019.43
2021-08-28 21:22:00,,0826.7,4.99,0.00,29.0,27.8,00.0,37.9,30.9,25.9,0002.4,0020.86,0036.55,0019.36
2021-08-28 21:23:00,,0826.7,5.00,0.00,29.1,28.1,00.0,38.0,31.0,25.9,0002.5,0020.73,0035.83,0019.30
2021-08-28 21:24:00,,0826.7,4.99,0.00,29.1,27.4,00.0,38.0,30.8,25.5,0002.6,0020.68,0035.40,0019.25
2021-08-28 21:25:00,,0826.7,5.00,0.00,29.0,25.9,00.0,38.0,30.4,25.6,0002.6,0020.61,0035.07,0019.17
2021-08-28 21:26:00,,0826.7,5.01,0.00,28.9,25.7,00.0,38.0,30.3,26.0,0002.7,0020.59,0034.64,0019.12
2021-08-28 21:27:00,,0826.7,5.00,0.00,28.8,26.1,00.0,37.9,30.4,26.0,0002.6,0020.56,0034.83,0019.06
2021-08-28 21:28:00,,0826.7,5.01,0.00,28.8,26.6,00.0,37.9,30.5,26.2,0002.6,0020.46,0033.51,0018.97
2021-08-28 21:29:00,,0826.6,5.00,0.00,28.9,27.0,00.0,37.9,30.7,26.3,0002.5,0020.36,0032.15,0018.87
2021-08-28 21:30:00,,0826.7,5.01,0.00,28.9,27.4,00.0,37.9,30.8,26.6,0002.5,0020.30,0030.84,0018.80
2021-08-28 21:31:00,,0826.7,4.99,0.00,29.0,27.8,00.0,37.9,30.9,26.0,0002.6,0020.23,0030.29,0018.78
2021-08-28 21:32:00,,0826.7,5.01,0.00,29.0,28.1,00.0,38.0,31.0,26.0,0002.5,0020.21,0030.39,0018.71
2021-08-28 21:33:00,,0826.7,4.99,0.00,29.1,27.5,00.0,38.0,30.8,25.8,0002.4,0020.17,0030.66,0018.65
2021-08-28 21:34:00,,0826.7,5.01,0.00,28.9,25.9,00.0,38.0,30.4,25.7,0002.3,0020.12,0030.69,0018.61
2021-08-28 21:35:00,,0826.7,4.99,0.00,28.8,25.6,00.0,38.0,30.3,26.3,0002.3,0020.11,0031.03,0018.57
2021-08-28 21:36:00,,0826.7,5.00,0.00,28.8,26.1,00.0,37.9,30.4,26.3,0002.2,0020.09,0031.78,0018.54
2021-08-28 21:37:00,,0826.7,5.01,0.00,28.8,26.5,00.0,37.9,30.5,26.0,0002.1,0020.07,0032.36,0018.50
2021-08-28 21:38:00,,0826.7,5.01,0.00,28.8,27.0,00.0,37.9,30.6,26.9,0002.1,0020.03,0031.56,0018.45
2021-08-28 21:39:00,,0826.7,5.00,0.00,28.9,27.4,00.0,37.9,30.8,26.8,0002.1,0019.96,0030.64,0018.39
2021-08-28 21:40:00,,0826.7,5.00,0.00,29.0,27.8,00.0,37.9,30.9,26.6,0002.0,0019.90,0031.52,0018.35
2021-08-28 21:41:00,,0826.7,4.99,0.00,29.0,28.1,00.0,37.9,31.0,26.8,0002.0,0019.92,0031.95,0018.34
2021-08-28 21:42:00,,0826.7,5.00,0.00,29.1,28.2,00.0,38.0,31.0,26.8,0002.0,0019.97,0031.68,0018.29
2021-08-28 21:43:00,,0826.7,5.01,0.00,29.1,26.9,00.0,38.0,30.7,27.2,0002.3,0020.02,0031.93,0018.29
2021-08-28 21:44:00,,0826.7,5.00,0.00,28.9,25.7,00.0,38.0,30.3,27.9,0002.3,0020.01,0032.58,0018.28
2021-08-28 21:45:00,,0826.7,5.00,0.00,28.8,25.9,00.0,38.0,30.4,27.5,0002.3,0019.98,0033.69,0018.27
2021-08-28 21:46:00,,0826.7,5.00,0.00,28.8,26.3,00.0,37.9,30.5,27.6,0002.3,0019.92,0034.62,0018.24
2021-08-28 21:47:00,,0826.7,5.01,0.00,28.8,26.7,00.0,37.9,30.6,27.1,0002.3,0019.93,0034.53,0018.20
2021-08-28 21:48:00,,0826.7,4.99,0.00,28.9,27.2,00.0,37.9,30.7,26.9,0002.4,0019.85,0034.26,0018.15
2021-08-28 21:49:00,,0826.7,5.00,0.00,28.9,27.6,00.0,37.9,30.8,26.9,0002.3,0019.85,0034.92,0018.10
2021-08-28 21:50:00,,0826.7,5.00,0.00,29.0,27.9,00.0,38.0,31.0,26.1,0002.4,0019.88,0035.61,0018.08
2021-08-28 21:51:00,,0826.7,5.00,0.00,29.1,28.1,00.0,38.0,31.0,25.5,0002.5,0019.81,0034.84,0018.03
2021-08-28 21:52:00,,0826.7,4.99,0.00,29.1,26.9,00.0,38.0,30.7,26.0,0002.4,0019.66,0034.68,0017.95
2021-08-28 21:53:00,,0826.7,4.99,0.00,28.9,25.6,00.0,38.0,30.3,26.4,0002.5,0019.56,0034.37,0017.91
2021-08-28 21:54:00,,0826.7,5.01,0.00,28.8,25.7,00.0,38.0,30.3,26.5,0002.5,0019.50,0033.83,0017.88
2021-08-28 21:55:00,,0826.7,4.99,0.00,28.8,26.1,00.0,37.9,30.4,26.8,0002.6,0019.44,0032.66,0017.83
2021-08-28 21:56:00,,0826.7,4.99,0.00,28.8,26.6,00.0,37.9,30.5,26.5,0002.6,0019.40,0031.09,0017.76
2021-08-28 21:57:00,,0826.7,5.01,0.00,28.8,27.0,00.0,37.9,30.6,26.5,0002.6,0019.38,0029.82,0017.72
2021-08-28 21:58:00,,0826.7,4.99,0.00,28.9,27.5,00.0,37.9,30.8,26.5,0002.6,0019.39,0029.47,0017.69
2021-08-28 21:59:00,,0826.7,4.99,0.00,29.0,27.8,00.0,37.9,30.9,26.2,0002.5,0019.41,0029.20,0017.69
